| time (UTC) | temp F | wind direction | speed MPH | gust MPH | rain 1hr in | rain 24hr in | rain mn in | humidity % | barometer mb |
| 20260508151536 | 67 | 98 | 12.0 | 18.0 | 0.00 | 0.00 | 0.00 | 65 | 1007.2 |
| 20260508150012 | 67 | 98 | 9.0 | 16.0 | 0.00 | 0.00 | 0.00 | 65 | 1007.4 |
| 20260508144514 | 67 | 103 | 13.0 | 21.0 | 0.00 | 0.00 | 0.00 | 67 | 1007.5 |
| 20260508143018 | 67 | 95 | 11.0 | 21.0 | 0.00 | 0.00 | 0.00 | 67 | 1007.8 |
| 20260508141526 | 66 | 132 | 11.0 | 19.0 | 0.00 | 0.00 | 0.00 | 67 | 1008.1 |
| 20260508140007 | 67 | 121 | 14.0 | 18.0 | 0.00 | 0.00 | 0.00 | 66 | 1008.4 |
| 20260508134517 | 67 | 122 | 12.0 | 19.0 | 0.00 | 0.00 | 0.00 | 67 | 1008.6 |
| 20260508133018 | 66 | 125 | 11.0 | 19.0 | 0.00 | 0.00 | 0.00 | 67 | 1008.8 |
| 20260508131525 | 67 | 115 | 10.0 | 18.0 | 0.00 | 0.00 | 0.00 | 65 | 1008.7 |
| 20260508130023 | 67 | 102 | 11.0 | 21.0 | 0.00 | 0.00 | 0.00 | 65 | 1008.7 |
| 20260508124521 | 66 | 102 | 12.0 | 20.0 | 0.00 | 0.00 | 0.00 | 65 | 1008.9 |
| 20260508123016 | 66 | 107 | 9.0 | 17.0 | 0.00 | 0.00 | 0.00 | 66 | 1009.0 |
| 20260508121525 | 66 | 117 | 10.0 | 18.0 | 0.00 | 0.00 | 0.00 | 66 | 1009.2 |
| 20260508120027 | 66 | 98 | 14.0 | 20.0 | 0.00 | 0.00 | 0.00 | 65 | 1009.6 |
| 20260508114527 | 66 | 125 | 11.0 | 15.0 | 0.00 | 0.00 | 0.00 | 65 | 1009.7 |
| 20260508113016 | 65 | 113 | 8.0 | 15.0 | 0.00 | 0.00 | 0.00 | 66 | 1009.9 |
| 20260508111521 | 64 | 121 | 6.0 | 13.0 | 0.00 | 0.00 | 0.00 | 67 | 1010.0 |
| 20260508110025 | 64 | 122 | 8.0 | 14.0 | 0.00 | 0.00 | 0.00 | 65 | 1010.1 |
| 20260508104523 | 64 | 117 | 10.0 | 17.0 | 0.00 | 0.00 | 0.00 | 63 | 1010.3 |
| 20260508103014 | 64 | 181 | 7.0 | 16.0 | 0.00 | 0.00 | 0.00 | 66 | 1010.3 |
| 20260508101522 | 63 | 101 | 10.0 | 18.0 | 0.00 | 0.00 | 0.00 | 65 | 1010.3 |
| 20260508100023 | 63 | 73 | 9.0 | 17.0 | 0.00 | 0.00 | 0.00 | 65 | 1010.3 |
| 20260508094526 | 63 | 96 | 11.0 | 17.0 | 0.00 | 0.00 | 0.00 | 64 | 1010.2 |
| 20260508093029 | 63 | 103 | 6.0 | 15.0 | 0.00 | 0.00 | 0.00 | 65 | 1010.3 |
| 20260508091528 | 63 | 59 | 5.0 | 15.0 | 0.00 | 0.00 | 0.00 | 66 | 1010.3 |
| 20260508090021 | 62 | 70 | 6.0 | 15.0 | 0.00 | 0.00 | 0.00 | 70 | 1010.3 |
| 20260508084525 | 62 | 126 | 10.0 | 14.0 | 0.00 | 0.00 | 0.00 | 69 | 1010.4 |
| 20260508083034 | 61 | 80 | 9.0 | 14.0 | 0.00 | 0.00 | 0.00 | 71 | 1010.4 |
| 20260508081529 | 61 | 84 | 5.0 | 12.0 | 0.00 | 0.00 | 0.00 | 72 | 1010.5 |
| 20260508080020 | 61 | 37 | 4.0 | 11.0 | 0.00 | 0.00 | 0.00 | 73 | 1010.6 |
| 20260508074504 | 60 | 67 | 3.0 | 10.0 | 0.00 | 0.00 | 0.00 | 74 | 1010.6 |
| 20260508073009 | 60 | 71 | 5.0 | 12.0 | 0.00 | 0.00 | 0.00 | 74 | 1010.5 |
| 20260508071512 | 59 | 77 | 4.0 | 9.0 | 0.00 | 0.00 | 0.00 | 75 | 1010.3 |
| 20260508070018 | 58 | 49 | 5.0 | 11.0 | 0.00 | 0.00 | 0.00 | 76 | 1010.2 |
| 20260508064529 | 57 | 67 | 3.0 | 8.0 | 0.00 | 0.00 | 0.00 | 77 | 1010.2 |
| 20260508063003 | 56 | 44 | 1.0 | 8.0 | 0.00 | 0.00 | 0.00 | 78 | 1010.0 |
| 20260508061510 | 56 | 61 | 3.0 | 8.0 | 0.00 | 0.00 | 0.00 | 78 | 1009.9 |
| 20260508060014 | 56 | 63 | 2.0 | 5.0 | 0.00 | 0.00 | 0.00 | 78 | 1009.9 |
| 20260508054521 | 56 | 80 | 3.0 | 7.0 | 0.00 | 0.00 | 0.00 | 78 | 1009.7 |
| 20260508053005 | 56 | 46 | 3.0 | 7.0 | 0.00 | 0.00 | 0.00 | 77 | 1009.6 |
| 20260508051508 | 56 | 46 | 2.0 | 5.0 | 0.00 | 0.00 | 0.00 | 77 | 1009.6 |
| 20260508050014 | 56 | 55 | 3.0 | 8.0 | 0.00 | 0.00 | 0.00 | 77 | 1009.6 |
| 20260508044518 | 56 | 51 | 4.0 | 7.0 | 0.00 | 0.00 | 0.00 | 76 | 1009.6 |
| 20260508043021 | 56 | 57 | 2.0 | 5.0 | 0.00 | 0.00 | 0.00 | 74 | 1009.5 |
| 20260508041510 | 57 | 34 | 2.0 | 5.0 | 0.00 | 0.00 | 0.00 | 75 | 1009.2 |
| 20260508040011 | 57 | 36 | 2.0 | 3.0 | 0.00 | 0.00 | 0.00 | 75 | 1009.1 |
| 20260508034524 | 57 | 36 | 1.0 | 2.0 | 0.00 | 0.00 | 0.00 | 76 | 1009.3 |
| 20260508033025 | 57 | 35 | 0.0 | 0.0 | 0.00 | 0.00 | 0.00 | 75 | 1009.4 |
| 20260508031525 | 57 | 35 | 0.0 | 2.0 | 0.00 | 0.00 | 0.00 | 75 | 1009.3 |
| 20260508030016 | 58 | 35 | 0.0 | 4.0 | 0.00 | 0.00 | 0.00 | 75 | 1009.4 |
| 20260508024521 | 58 | 73 | 0.0 | 2.0 | 0.00 | 0.00 | 0.00 | 74 | 1009.5 |
| 20260508023017 | 57 | 69 | 1.0 | 2.0 | 0.00 | 0.00 | 0.00 | 73 | 1009.8 |
| 20260508021531 | 57 | 69 | 1.0 | 2.0 | 0.00 | 0.00 | 0.00 | 72 | 1009.8 |
| 20260508020025 | 58 | 69 | 2.0 | 3.0 | 0.00 | 0.00 | 0.00 | 71 | 1009.9 |
| 20260508014514 | 58 | 71 | 0.0 | 4.0 | 0.00 | 0.00 | 0.00 | 71 | 1010.2 |
| 20260508013017 | 58 | 85 | 2.0 | 4.0 | 0.00 | 0.00 | 0.00 | 71 | 1010.3 |
| 20260508011530 | 58 | 226 | 0.0 | 1.0 | 0.00 | 0.00 | 0.00 | 71 | 1010.6 |
| 20260508010037 | 58 | 226 | 0.0 | 0.0 | 0.00 | 0.00 | 0.00 | 71 | 1010.3 |
| 20260508004510 | 58 | 226 | 0.0 | 0.0 | 0.00 | 0.00 | 0.00 | 71 | 1010.5 |
| 20260508003016 | 58 | 226 | 0.0 | 2.0 | 0.00 | 0.00 | 0.00 | 71 | 1010.7 |
| 20260508001522 | 58 | 226 | 0.0 | 2.0 | 0.00 | 0.00 | 0.00 | 71 | 1010.7 |
| 20260508000025 | 58 | 226 | 0.0 | 2.0 | 0.00 | 0.00 | 0.00 | 71 | 1010.7 |
| 20260507234525 | 58 | 226 | 0.0 | 1.0 | 0.00 | 0.00 | 0.00 | 70 | 1010.8 |
| 20260507233015 | 58 | 226 | 0.0 | 2.0 | 0.00 | 0.00 | 0.00 | 69 | 1010.9 |
| 20260507231519 | 58 | 226 | 0.0 | 2.0 | 0.00 | 0.00 | 0.00 | 69 | 1010.9 |
| 20260507230032 | 58 | 226 | 0.0 | 2.0 | 0.00 | 0.00 | 0.00 | 69 | 1010.7 |
| 20260507224532 | 58 | 225 | 1.0 | 3.0 | 0.00 | 0.00 | 0.00 | 69 | 1010.9 |
| 20260507223052 | 58 | 232 | 1.0 | 3.0 | 0.00 | 0.00 | 0.00 | 69 | 1011.2 |
| 20260507221517 | 58 | 236 | 2.0 | 5.0 | 0.00 | 0.00 | 0.00 | 69 | 1011.2 |
| 20260507220021 | 59 | 207 | 2.0 | 4.0 | 0.00 | 0.00 | 0.00 | 68 | 1011.4 |
| 20260507214525 | 59 | 210 | 2.0 | 5.0 | 0.00 | 0.00 | 0.00 | 68 | 1011.6 |
| 20260507213026 | 59 | 201 | 3.0 | 8.0 | 0.00 | 0.00 | 0.00 | 68 | 1011.5 |
| 20260507211528 | 59 | 227 | 3.0 | 9.0 | 0.00 | 0.00 | 0.00 | 68 | 1011.5 |
| 20260507210019 | 59 | 186 | 4.0 | 7.0 | 0.00 | 0.00 | 0.00 | 66 | 1011.2 |
| 20260507204525 | 59 | 194 | 4.0 | 8.0 | 0.00 | 0.00 | 0.00 | 67 | 1011.3 |
| 20260507203034 | 59 | 219 | 3.0 | 8.0 | 0.00 | 0.00 | 0.00 | 67 | 1011.3 |
| 20260507201528 | 59 | 200 | 3.0 | 7.0 | 0.00 | 0.00 | 0.00 | 67 | 1011.3 |
| 20260507200031 | 59 | 187 | 3.0 | 8.0 | 0.00 | 0.00 | 0.00 | 69 | 1011.1 |
| 20260507194520 | 59 | 219 | 5.0 | 10.0 | 0.00 | 0.00 | 0.00 | 69 | 1011.1 |
| 20260507193039 | 59 | 217 | 3.0 | 11.0 | 0.00 | 0.00 | 0.00 | 70 | 1011.1 |
| 20260507191526 | 59 | 183 | 5.0 | 10.0 | 0.00 | 0.00 | 0.00 | 68 | 1011.1 |
| 20260507190034 | 60 | 192 | 6.0 | 10.0 | 0.00 | 0.00 | 0.00 | 70 | 1011.0 |
| 20260507184516 | 60 | 209 | 6.0 | 10.0 | 0.00 | 0.00 | 0.00 | 67 | 1010.9 |
| 20260507183033 | 60 | 171 | 4.0 | 11.0 | 0.00 | 0.00 | 0.00 | 69 | 1010.7 |
| 20260507181523 | 60 | 186 | 5.0 | 10.0 | 0.00 | 0.00 | 0.00 | 68 | 1010.7 |
| 20260507180026 | 60 | 196 | 4.0 | 11.0 | 0.00 | 0.00 | 0.00 | 68 | 1010.7 |
| 20260507174528 | 61 | 175 | 6.0 | 13.0 | 0.00 | 0.00 | 0.00 | 67 | 1010.7 |
| 20260507173017 | 61 | 189 | 4.0 | 12.0 | 0.00 | 0.00 | 0.00 | 64 | 1010.8 |
| 20260507171516 | 61 | 203 | 6.0 | 13.0 | 0.00 | 0.00 | 0.00 | 64 | 1010.8 |
| 20260507170020 | 62 | 192 | 6.0 | 15.0 | 0.00 | 0.00 | 0.00 | 64 | 1010.7 |
| 20260507164513 | 62 | 234 | 7.0 | 14.0 | 0.00 | 0.00 | 0.00 | 66 | 1010.5 |
| 20260507163017 | 63 | 209 | 9.0 | 16.0 | 0.00 | 0.00 | 0.00 | 61 | 1010.8 |
| 20260507161516 | 63 | 211 | 6.0 | 17.0 | 0.00 | 0.00 | 0.00 | 62 | 1010.8 |
| 20260507160018 | 62 | 202 | 8.0 | 15.0 | 0.00 | 0.00 | 0.00 | 66 | 1010.9 |
| 20260507154522 | 63 | 207 | 8.0 | 15.0 | 0.00 | 0.00 | 0.00 | 63 | 1011.0 |
| 20260507153022 | 63 | 182 | 10.0 | 16.0 | 0.00 | 0.00 | 0.00 | 64 | 1010.9 |